FW9558 Weather Reports


time (UTC)temp
C
wind
direction
speed
KPH
gust
KPH
rain 1hr
cm
rain 24hr
cm
rain mn
cm
humidity
%
barometer
mb
20260510043039 13 0 0.0 3.2 0.00 0.08 0.03 90 1008.7
20260510041534 13 0 0.0 0.0 0.00 0.08 0.03 89 1008.8
20260510040038 13 0 0.0 0.0 0.00 0.08 0.03 89 1009.0
20260510034536 13 0 0.0 1.6 0.00 0.08 0.03 88 1009.1
20260510033046 13 0 0.0 3.2 0.00 0.08 0.03 88 1009.1
20260510031545 13 0 0.0 0.0 0.00 0.08 0.03 89 1009.3
20260510030041 13 0 0.0 1.6 0.00 0.08 0.03 89 1009.3
20260510024539 14 0 0.0 0.0 0.00 0.08 0.03 89 1009.2
20260510023036 14 0 0.0 0.0 0.00 0.08 0.03 89 1009.0
20260510021616 14 0 0.0 0.0 0.00 0.08 0.03 88 1008.9
20260510020039 14 0 0.0 3.2 0.00 0.08 0.03 87 1008.8
20260510014551 15 0 0.0 3.2 0.00 0.08 0.03 87 1008.8
20260510013041 15 0 0.0 3.2 0.00 0.08 0.03 87 1008.9
20260510011538 15 0 0.0 1.6 0.00 0.08 0.03 86 1009.1
20260510010049 15 0 0.0 0.0 0.00 0.08 0.03 86 1009.5
20260510004535 15 0 0.0 0.0 0.00 0.08 0.03 85 1009.8
20260510003036 15 0 0.0 3.2 0.00 0.08 0.03 84 1010.1
20260510001540 15 0 0.0 0.0 0.00 0.08 0.03 85 1010.2
20260510000041 15 0 0.0 3.2 0.00 0.08 0.03 85 1010.8
20260509234538 15 0 0.0 3.2 0.00 0.08 0.03 84 1011.2
20260509233036 15 0 0.0 4.8 0.00 0.08 0.03 82 1011.5
20260509231543 16 158 1.6 8.0 0.00 0.08 0.03 82 1011.7
20260509230040 16 184 1.6 8.0 0.00 0.05 0.00 83 1011.7
20260509224540 16 117 3.2 6.4 0.05 0.05 0.00 85 1011.3
20260509223040 16 0 0.0 3.2 0.05 0.05 0.00 85 1011.0
20260509221540 17 0 3.2 8.0 0.05 0.05 0.00 83 1010.9
20260509220039 18 123 0.0 8.0 0.03 0.03 0.00 78 1010.8
20260509214539 18 157 1.6 16.1 0.00 0.00 0.00 74 1010.8
20260509213037 18 153 1.6 11.3 0.00 0.00 0.00 76 1010.9
20260509211539 18 0 0.0 0.0 0.00 0.00 0.00 75 1010.5
20260509210045 18 0 0.0 0.0 0.00 0.00 0.00 75 1010.4
20260509204535 18 0 0.0 0.0 0.00 0.00 0.00 74 1010.2
20260509203036 18 0 0.0 0.0 0.00 0.00 0.00 73 1010.0
20260509201539 19 0 0.0 0.0 0.00 0.00 0.00 71 1010.0
20260509200045 20 0 0.0 0.0 0.00 0.00 0.00 70 1010.0
20260509194552 20 0 0.0 0.0 0.00 0.00 0.00 69 1009.7
20260509193040 20 0 0.0 0.0 0.00 0.00 0.00 66 1009.6
20260509191538 21 0 0.0 0.0 0.00 0.00 0.00 65 1009.4
20260509190037 21 0 0.0 3.2 0.00 0.00 0.00 64 1009.4
20260509184539 21 63 0.0 4.8 0.00 0.00 0.00 62 1009.4
20260509183039 22 0 0.0 4.8 0.00 0.00 0.00 60 1009.2
20260509181538 22 84 1.6 4.8 0.00 0.00 0.00 60 1009.3
20260509180049 22 0 0.0 6.4 0.00 0.00 0.00 59 1009.4
20260509174537 22 0 0.0 6.4 0.00 0.00 0.00 58 1009.5
20260509173053 23 75 1.6 8.0 0.00 0.00 0.00 56 1009.4
20260509171541 23 56 1.6 4.8 0.00 0.00 0.00 56 1009.4
20260509170038 23 0 0.0 6.4 0.00 0.00 0.00 56 1009.3
20260509164538 23 97 1.6 8.0 0.00 0.00 0.00 55 1009.4
20260509163040 23 103 3.2 9.7 0.00 0.00 0.00 54 1009.6
20260509161552 23 107 1.6 6.4 0.00 0.00 0.00 56 1009.5
20260509160040 23 83 1.6 11.3 0.00 0.00 0.00 55 1009.7
20260509154545 23 136 1.6 6.4 0.00 0.00 0.00 56 1009.8
20260509153051 23 122 3.2 9.7 0.00 0.00 0.00 54 1009.8
20260509151536 23 143 3.2 9.7 0.00 0.00 0.00 54 1009.9
20260509150042 23 90 1.6 9.7 0.00 0.00 0.00 54 1010.1
20260509144545 23 152 1.6 8.0 0.00 0.00 0.00 53 1010.3
20260509143038 23 76 3.2 11.3 0.00 0.00 0.00 55 1010.4
20260509141542 23 97 1.6 8.0 0.00 0.00 0.00 54 1010.6
20260509140052 23 65 3.2 11.3 0.00 0.00 0.00 54 1010.8
20260509134540 23 90 3.2 12.9 0.00 0.00 0.00 56 1011.0
20260509133039 23 76 3.2 11.3 0.00 0.00 0.00 56 1011.1
20260509131538 23 62 3.2 11.3 0.00 0.00 0.00 59 1011.1
20260509130038 23 126 1.6 11.3 0.00 0.00 0.00 58 1011.3
20260509124536 22 116 3.2 11.3 0.00 0.00 0.00 59 1011.3
20260509123033 22 104 4.8 11.3 0.00 0.00 0.00 58 1011.3
20260509121534 22 107 3.2 9.7 0.00 0.00 0.00 59 1011.3
20260509120039 22 0 3.2 11.3 0.00 0.00 0.00 60 1011.2
20260509114538 22 72 4.8 14.5 0.00 0.00 0.00 59 1011.5
20260509113035 22 109 1.6 11.3 0.00 0.00 0.00 58 1011.5
20260509111536 22 110 3.2 12.9 0.00 0.00 0.00 59 1011.8
20260509110035 22 0 1.6 12.9 0.00 0.00 0.00 64 1011.9
20260509104539 21 113 4.8 16.1 0.00 0.00 0.00 65 1012.1
20260509103046 21 153 4.8 14.5 0.00 0.00 0.00 66 1012.4
20260509101540 21 169 4.8 12.9 0.00 0.00 0.00 66 1012.4
20260509100038 21 113 1.6 11.3 0.00 0.00 0.00 67 1012.5
20260509094536 21 138 4.8 12.9 0.00 0.00 0.00 67 1012.5
20260509093039 20 139 3.2 11.3 0.00 0.00 0.00 70 1012.5
20260509091548 20 139 4.8 11.3 0.00 0.00 0.00 69 1012.3
20260509090050 19 169 4.8 11.3 0.00 0.00 0.00 70 1012.2
20260509084536 18 142 6.4 14.5 0.00 0.00 0.00 73 1012.4
20260509083040 18 155 3.2 11.3 0.00 0.00 0.00 74 1012.4
20260509081534 17 159 3.2 12.9 0.00 0.00 0.00 76 1012.6
20260509080046 16 162 4.8 11.3 0.00 0.00 0.00 76 1012.6
20260509074550 16 159 3.2 12.9 0.00 0.00 0.00 78 1012.9
20260509073054 16 125 1.6 9.7 0.00 0.00 0.00 79 1012.7
20260509071535 15 141 4.8 12.9 0.00 0.00 0.00 78 1012.8
20260509070044 15 131 3.2 12.9 0.00 0.00 0.00 79 1012.9
20260509064540 15 171 4.8 12.9 0.00 0.00 0.00 80 1012.7
20260509063052 14 138 1.6 8.0 0.00 0.00 0.00 81 1012.8
20260509061537 13 0 0.0 6.4 0.00 0.00 0.00 81 1012.8
20260509060048 14 146 0.0 9.7 0.00 0.00 0.00 80 1012.6
20260509054537 14 152 1.6 9.7 0.00 0.00 0.00 80 1012.5
20260509053057 14 150 3.2 8.0 0.00 0.00 0.00 80 1012.4
20260509051538 13 142 1.6 8.0 0.00 0.00 0.00 80 1012.3
20260509050038 13 149 1.6 8.0 0.00 0.00 0.00 80 1012.2
20260509044536 13 126 0.0 3.2 0.00 0.00 0.00 81 1011.9